Daggett-Barstow, CA

6:18 AM PDT on June 24, 2018 (GMT -0700)
Barstow-Daggett

Weather History for KDAG - October, 2017

Change the Weather History Date:

Wednesday, October 11, 2017

  Actual Average Record
Temperature  
Mean Temperature 68 °F 70 °F  
Max Temperature 86 °F 85 °F 97 °F (1971)
Min Temperature 49 °F 56 °F 44 °F (2008)
Degree Days  
Heating Degree Days 0    
Cooling Degree Days 3    
Growing Degree Days 17 (Base 50)    
Moisture  
Dew Point 21 °F    
Average Humidity 19    
Maximum Humidity 30    
Minimum Humidity 8    
Precipitation  
Precipitation 0.00 in 0.00 in 0.08 in (1957)
Month to date precipitation 0.00 0.06  
Year to date precipitation 2.16 3.03  
Sea Level Pressure  
Sea Level Pressure 29.83 in    
Wind  
Wind Speed 7 mph (West)    
Max Wind Speed 20 mph    
Max Gust Speed 23 mph    
Visibility 10 miles    
Events      
T = Trace of Precipitation, MM = Missing Value Source: NWS Daily Summary

Daily Weather History Graph

Daily Weather History Graph

Search for Another Location

Airport or City:

Astronomy

Oct. 11, 2017 Rise Set
Actual Time 6:49 AM PDT 6:17 PM PDT
Civil Twilight 6:24 AM PDT 6:42 PM PDT
Nautical Twilight 5:55 AM PDT 7:11 PM PDT
Astronomical Twilight 5:26 AM PDT 7:40 PM PDT
Moon 11:34 PM PDT (10/11) 1:01 PM PDT (10/11)
Length of Visible Light 12h 17m
Length of Day
11h 27m
Waning Gibbous, 58% of the Moon is Illuminated
Oct 11
Waning Gibbous
Oct 12
Last Quarter
Oct 19
New
Oct 27
First Quarter
Nov 3
Full

Hourly Weather History & Observations

Time (PDT) Temp. Dew Point Humidity Pressure Visibility Wind Dir Wind Speed Gust Speed Precip Events Conditions
12:50 AM 55.0 °F 12.9 °F 19% 29.87 in 10.0 mi WNW 4.6 mph - N/A   Clear
1:50 AM 54.0 °F 15.1 °F 22% 29.87 in 10.0 mi West 9.2 mph - N/A   Clear
3:50 AM 52.0 °F 15.1 °F 23% 29.86 in 10.0 mi West 6.9 mph - N/A   Clear
4:50 AM 51.1 °F 14.0 °F 23% 29.86 in 10.0 mi West 8.1 mph - N/A   Unknown
5:50 AM 50.0 °F 15.1 °F 25% 29.86 in 10.0 mi West 10.4 mph - N/A   Clear
6:50 AM 51.1 °F 15.1 °F 24% 29.88 in 10.0 mi West 9.2 mph - N/A   Clear
7:50 AM 54.0 °F 15.1 °F 22% 29.89 in 10.0 mi Calm Calm - N/A   Clear
8:50 AM 62.1 °F 15.1 °F 16% 29.90 in 10.0 mi Calm Calm - N/A   Clear
9:50 AM 66.0 °F 16.0 °F 15% 29.90 in 10.0 mi Calm Calm - N/A   Clear
10:50 AM 73.9 °F 16.0 °F 11% 29.88 in 10.0 mi Calm Calm - N/A   Clear
11:50 AM 78.1 °F 18.0 °F 10% 29.87 in 10.0 mi Variable 3.5 mph - N/A   Clear
12:50 PM 81.0 °F 19.9 °F 10% 29.83 in 10.0 mi Variable 4.6 mph - N/A   Clear
1:50 PM 82.9 °F 18.0 °F 9% 29.80 in 10.0 mi North 4.6 mph - N/A   Clear
2:50 PM 84.0 °F 18.0 °F 9% 29.78 in 10.0 mi Variable 3.5 mph - N/A   Clear
3:50 PM 84.9 °F 18.0 °F 8% 29.76 in 10.0 mi NE 5.8 mph - N/A   Clear
4:50 PM 84.9 °F 18.0 °F 8% 29.75 in 10.0 mi East 4.6 mph - N/A   Clear
5:50 PM 82.9 °F 21.9 °F 11% 29.75 in 10.0 mi SW 12.7 mph - N/A   Clear
6:50 PM 79.0 °F 27.0 °F 15% 29.76 in 10.0 mi SSW 13.8 mph - N/A   Clear
7:50 PM 75.9 °F 30.0 °F 19% 29.78 in 10.0 mi SW 13.8 mph - N/A   Clear
8:50 PM 73.0 °F 37.0 °F 27% 29.80 in 10.0 mi WNW 13.8 mph - N/A   Clear
9:50 PM 71.1 °F 35.1 °F 27% 29.82 in 10.0 mi WSW 15.0 mph - N/A   Clear
10:50 PM 68.0 °F 32.0 °F 26% 29.83 in 10.0 mi West 8.1 mph - N/A   Clear
11:50 PM 64.0 °F 32.0 °F 30% 29.83 in 10.0 mi WNW 8.1 mph - N/A   Clear